Hourly Data Report for May 16, 2022

MIRAMICHI RCS
NEW BRUNSWICK
Current Station Operator: ECCC - MSC

47°00'34.000" N
65°27'54.000" W
33.00 m
8100989
71744
ACQ

Download Data

Hourly Data (May 2022)
Hourly Data Report for May 16, 2022
TIME
LST
Temp Definition
°C
Dew Point Definition
°C
Rel Hum Definition
%
Precip. Amount Definition
mm

Wind Dir Definition
10's deg

Wind Spd Definition
km/h
Visibility Definition
km
Stn Press Definition
kPa
Hmdx Definition


Wind Chill Definition


Weather Definition


00:00 9.5 7.6 88 0.0 6 9   100.93     LegendNANA
01:00 9.7 7.6 87 0.0 7 9   100.83     LegendNANA
02:00 9.6 8.1 90 0.0 7 8   100.75     LegendNANA
03:00 9.6 8.3 92 0.0 7 6   100.68     LegendNANA
04:00 9.4 8.5 94 0.0 8 6   100.62     LegendNANA
05:00 9.3 8.8 97 0.2 9 6   100.58     LegendNANA
06:00 9.7 9.2 97 0.4 10 8   100.52     LegendNANA
07:00 10.4 9.8 96 0.0 13 8   100.50     LegendNANA
08:00 11.0 10.6 97 0.0 15 9   100.46     LegendNANA
09:00 12.2 11.3 95 0.0 18 12   100.40     LegendNANA
10:00 13.0 12.0 94 0.0 18 11   100.39     LegendNANA
11:00 13.6 12.3 92 0.0 21 12   100.36     LegendNANA
12:00 14.2 13.1 94 0.2 22 8   100.33     LegendNANA
13:00 15.8 14.5 92 0.2 20 12   100.28     LegendNANA
14:00 16.1 13.6 85 0.0 23 12   100.28     LegendNANA
15:00 17.1 13.9 82 0.0 20 10   100.23     LegendNANA
16:00 16.9 14.0 83 0.0 30 5   100.20     LegendNANA
17:00 16.9 14.2 84 0.0 34 4   100.15     LegendNANA
18:00 15.6 13.3 87 0.0 8 11   100.14     LegendNANA
19:00 14.9 13.2 89 0.0 5 9   100.14     LegendNANA
20:00 14.2 12.9 92 0.0 4 5   100.16     LegendNANA
21:00 14.3 13.2 93 0.0 6 9   100.17     LegendNANA
22:00 13.5 12.9 96 0.0 6 11   100.14     LegendNANA
23:00 12.3 11.8 97 0.0 6 10   100.11     LegendNANA

Notes on Data Quality.

Legend

  • E = Estimated
  • M = Missing
  • NA = Not Available*
  • [empty] = Indicates an unobserved value
Date modified: